Location: Bad Salzschlirf
(50.3750°N, 9.3000°E)
Time: 04:28:02
(UTC+02:00)

ISS - Pass Details

Date: 11 July 2025
Orbit: 413 x 417 km, 51.6° (Epoch: 12 July)

Event Time Altitude Azimuth Distance (km) Brightness Sun altitude
Rises 23:33:39 0° 263° (W) 2,350 0.3 -13.3°
Reaches altitude 10° 23:35:45 10° 265° (W) 1,489 -0.7 -13.5°
Maximum altitude 23:39:05 75° 351° (N) 434 -3.6 -13.7°
Drops below altitude 10° 23:42:26 10° 78° (ENE) 1,493 -1.1 -13.9°
Sets 23:44:33 0° 80° (E) 2,357 -0.1 -14.1°
